Location: Zagreb
(45.8000°N, 16.0000°E)
Time: 15:29:57
(UTC+01:00)

SR - Pass Details

Date: 26 October 2020
Orbit: 579 x 876 km, 66.7° (Epoch: 27 November)

Event Time Altitude Azimuth Distance (km) Brightness Sun altitude
Exits shadow 03:37:06 17° 15° (NNE) 1,558 ? -30.2°
Drops below altitude 10° 03:38:15 10° 21° (NNE) 1,976 ? -30.0°
Sets 03:40:42 0° 29° (NNE) 2,923 ? -29.6°
